KOSEN 1
1 49402U 21102H   25323.58107470  .00007975  00000-0  34027-3 0  9999
2 49402  97.3507   4.9591 0013652 222.6194 137.3984 15.23090010222072
HO-113
1 50466U 21131B   25323.87639641  .00000848  00000-0  27707-3 0  9994
2 50466  98.5067  52.4125 0004288  22.2685 337.8690 14.41068317204966
SNUGLITE 2
1 52899U 22065F   25323.35586259  .00001566  00000-0  30964-3 0  9999
2 52899  98.1910 104.0242 0006815 330.2060  29.8753 14.63742311180296
UmKA 1 (RS40S)
1 57172U 23091G   25323.80180365  .00006044  00000-0  30207-3 0  9992
2 57172  97.5378  18.3702 0014910 125.5956 234.6670 15.17735415132218
CubeBel-2 (EU11S)
1 57175U 23091K   25323.79997014  .00011072  00000-0  46961-3 0  9991
2 57175  97.5376  20.6574 0012243 128.4527 231.7810 15.23221561132364
SONATE-2
1 59112U 24043Q   25323.64865873  .00026554  00000-0  59375-3 0  9997
2 59112  97.5323  99.0705 0008775 247.6764 112.3553 15.43436212 95412
MO-122
1 60209U 24125G   25323.47594272  .00031762  00000-0  68578-3 0  9992
2 60209  97.2547 173.8610 0013633 271.4969  88.4718 15.44377627 77010
GRBBeta
1 60237U 24128C   25323.75667242  .00004939  00000-0  35414-3 0  9994
2 60237  61.9905 229.9366 0056894  91.9587 268.8022 15.04448566 74730
Curium One
1 60242U 24128H   25323.72935193  .00009307  00000-0  58793-3 0  9999
2 60242  61.9797 225.4378 0056713  88.8648 271.8943 15.08326346 74812
ROBUSTA-3A
1 60243U 24128J   25323.12636344  .00009610  00000-0  61684-3 0  9990
2 60243  61.9875 228.9920 0056698  86.1165 274.6408 15.07715484 74707
CatSat
1 60246U 24125J   25323.85868568  .00034185  00000-0  88433-3 0  9991
2 60246  97.2351 171.5206 0033801 228.8141 131.0188 15.38412510 75004
HYPERVIEW-1G (RS66S)
1 61772U 24199AP  25323.90339946  .00047083  00000-0  97697-3 0  9999
2 61772  97.3238 193.0904 0010149 336.9376  23.1416 15.45511889102080
AO-123
1 61781U 24199AY  25323.87128333  .00011424  00000-0  37888-3 0  9997
2 61781  97.3272 189.5797 0014561 345.3679  14.7139 15.31315581101847
ZIMSAT 2
1 61783U 24199BA  25323.82185661  .00178120  00000-0  18530-2 0  9990
2 61783  97.3144 195.8144 0006106 340.8652  19.2377 15.63992710105411
HADES-R (SO-124)
1 62690U 25009CK  25323.53076143  .00125839  00000-0  21257-2 0  9990
2 62690  97.3930  45.4029 0002904 243.0042 117.0914 15.51161789 47176
HYDRA-T
1 62692U 25009CM  25323.53010376  .00132569  00000-0  21521-2 0  9990
2 62692  97.3925  45.5554 0002656 242.8798 117.2184 15.52255839 47188
JINJUSat 1B
1 63210U 25052A   25323.18146419  .00017152  00000-0  67541-3 0  9997
2 63210  97.4208 215.5008 0005983  99.4009 260.7906 15.25665767 37999
NUSHSAT 1
1 63211U 25052B   25323.65049634  .00018136  00000-0  69474-3 0  9991
2 63211  97.4196 216.0599 0005913 100.2266 259.9640 15.26572612 38078
TEVEL2-4
1 63213U 25052D   25323.64182610  .00016861  00000-0  65795-3 0  9999
2 63213  97.4116 215.6498 0004789 108.7691 251.4068 15.25977783 38067
TEVEL2-5
1 63214U 25052E   25323.64624926  .00016635  00000-0  65040-3 0  9993
2 63214  97.4121 215.6442 0004856 111.1315 249.0443 15.25915140 38068
TEVEL2-6
1 63215U 25052F   25323.19378543  .00018697  00000-0  73192-3 0  9992
2 63215  97.4116 215.1849 0004763 111.4942 248.6805 15.25850887 37999
TEVEL2-1
1 63217U 25052H   25323.69075882  .00015564  00000-0  61527-3 0  9998
2 63217  97.4090 215.5078 0004617 118.8758 241.2944 15.25562636 38068
TEVEL2-3
1 63218U 25052J   25323.23111915  .00017639  00000-0  69666-3 0  9994
2 63218  97.4094 215.0568 0004620 121.3602 238.8088 15.25565646 37999
TEVEL2-2
1 63219U 25052K   25323.23239799  .00017465  00000-0  69020-3 0  9997
2 63219  97.4093 215.0538 0004616 121.1266 239.0426 15.25548063 37998
TEVEL2-9
1 63237U 25052AD  25323.23848265  .00016589  00000-0  68409-3 0  9997
2 63237  97.4157 214.7989 0007767 148.1625 212.0084 15.24112136 37968
TEVEL2-7
1 63238U 25052AE  25323.25021171  .00016946  00000-0  70151-3 0  9993
2 63238  97.4156 214.7890 0007800 148.1269 212.0441 15.23977581 37960
TEVEL2-8
1 63239U 25052AF  25323.18977902  .00016988  00000-0  70386-3 0  9994
2 63239  97.4156 214.7148 0007783 149.5504 210.6187 15.23947802 37957
HYDRA-W
1 63490U 25052BL  25322.64829077  .00057002  00000-0  15430-2 0  9992
2 63490  97.4083 216.1597 0009841 135.0509 225.1534 15.37441666 38018
HADES-ICM (SO-125)
1 63492U 25052BN  25323.65856563  .00049578  00000-0  14060-2 0  9993
2 63492  97.4089 216.9684 0009953 137.0439 223.1584 15.36025480 38158
Dragonfly
1 65729U 98067XH  25323.53713340  .00119007  00000-0  11986-2 0  9995
2 65729  51.6291 253.8535 0005711 151.4665 208.6643 15.64505751  9522
RSP-03
1 65732U 98067XL  25323.11780404  .00095057  00000-0  10349-2 0  9998
2 65732  51.6296 256.3049 0006691 126.9731 233.1877 15.62620166  9469
GHS-01
1 65733U 98067XM  25323.83682531  .00130471  00000-0  12405-2 0  9995
2 65733  51.6299 252.1081 0006213 151.1327 209.0013 15.65904685  9585
BOTAN
1 65942U 98067XP  25323.01702686  .00079738  00000-0  10518-2 0  9992
2 65942  51.6310 258.6311 0004732 102.1382 258.0140 15.57684723  6164
CEVROSAT1
1 98526C 25248E   25306.26352486  .00003971  00000+0  19360-3 0    07
2 98526  45.4084 255.8570 0001315 254.8982 118.2631 15.17600497    10
